Location: Grand Moustoir
(47.8355°N, 3.3120°W)
Time: 17:09:50
(UTC+00:00)

ATLAS 2AS CENTAUR R/B - Pass Details

Date: 20 January 2020
Orbit: 927 x 1285 km, 63.7° (Epoch: 21 February)

Event Time Altitude Azimuth Distance (km) Brightness Sun altitude
Rises 06:25:19 0° 214° (SW) 4,188 5.6 -14.6°
Reaches altitude 10° 06:28:04 10° 213° (SSW) 3,249 5.0 -14.2°
Maximum altitude 06:36:02 83° 127° (SE) 1,298 3.2 -12.9°
Drops below altitude 10° 06:44:03 10° 41° (NE) 3,262 5.6 -11.6°
Sets 06:46:49 0° 41° (NE) 4,207 6.1 -11.2°
